Location: Catacaguana
(10.4120°N, 66.7591°W)
Time: 00:00:54
(UTC+00:00)

Daily predictions for brighter satellites

Satellite Brightness Start Highest point End
(mag) Time Altitude Azimuth Time Altitude Azimuth Time Altitude Azimuth
GPS 2-14 Rocket1 2.7 00:00:16 10° W 00:03:55 54° SSW 00:04:30 47° SSE
USA 276 1.9 00:02:19 10° NW 00:05:13 72° SW 00:05:13 72° SW
CSL-04 Debris 4.4 00:05:19 34° SE 00:07:17 49° ENE 00:12:28 10° N
Cosmos 1400 Rocket 2.8 00:03:42 10° N 00:07:38 78° W 00:09:32 29° S
H-2A R/B 1.8 00:06:42 10° NNE 00:10:47 69° ESE 00:12:21 36° S
Cosmos 841 Rocket 3.3 00:09:37 10° N 00:14:48 82° ENE 00:16:48 38° SSE
deb Chang Zheng 4 3.3 00:15:17 49° S 00:16:23 87° WSW 00:20:30 10° NNW
Cosmos 1151 Rocket 4.2 00:14:03 10° SSW 00:18:07 42° W 00:22:10 10° NNW
Cosmos 2098 Rocket 3.0 00:15:53 10° NNW 00:18:35 47° W 00:18:35 47° W
BREEZE-M DEB (TANK) 4.1 00:14:30 10° SSW 00:18:53 49° ESE 00:35:57 10° NE
Cosmos 1503 Rocket 3.8 00:20:17 19° S 00:24:00 77° ESE 00:29:14 10° NNE
USA 186 4.5 00:27:06 10° N 00:27:06 10° N 00:27:09 10° N
OBJECT-B 2.4 00:28:05 31° WNW 00:28:05 31° WNW 00:30:00 10° NNW
Cosmos 1072 Rocket 4.5 00:26:39 51° ESE 00:27:17 53° E 00:33:10 10° NNE
CZ-4 R/B 3.4 00:24:27 11° SSW 00:27:27 24° W 00:30:42 10° NW
Cosmos 2297 Rocket 3.5 00:23:55 10° NNE 00:27:27 25° NE 00:27:27 25° NE
NOSS 3-2 (A) 4.3 00:25:15 10° NNW 00:33:43 63° ENE 00:36:29 46° SE
H-2A R/B 2.6 00:34:31 72° N 00:34:31 72° N 00:38:28 10° N
SJ-6B 3.7 00:35:26 44° N 00:35:26 44° N 00:38:04 10° N
SJ 16-02 3.8 00:38:53 11° NNE 00:38:53 11° NNE 00:39:08 10° NNE
BLOCK DM-SL R/B 3.3 00:22:55 10° WSW 00:35:47 32° SSW 00:36:18 32° S
Meteor 1-5 Rocket 4.0 00:31:45 10° N 00:37:02 81° W 00:38:01 60° SSW
Aurora 2 Rocket 3.6 00:35:27 10° WNW 00:38:07 32° WSW 00:38:07 32° WSW
Meteor 1-27 Rocket 3.7 00:42:14 46° SSW 00:44:01 79° W 00:49:47 10° N
ARIANE 5 R/B 3.6 00:23:02 10° WSW 00:46:57 39° SSW 00:47:41 38° S
Cosmos 2278 3.7 00:50:41 69° NNE 00:50:41 69° NNE 00:55:37 10° NNE
H-2A R/B 4.0 00:51:01 10° W 00:51:02 10° W 00:51:02 10° W
Sakura Rocket 4.2 00:48:43 10° NW 00:52:38 39° NNW 00:52:38 39° NNW
Resurs 01 Rocket 4.3 01:01:51 12° NNE 01:01:51 12° NNE 01:02:08 10° N
CENTAUR R/B 3.2 00:49:15 10° NNW 00:58:18 82° ENE 00:59:57 64° SE
USA 234 3.2 00:59:15 67° SSW 00:59:52 72° SW 01:06:24 10° NW
Ariane 3 Deb 4.5 00:59:40 10° W 01:03:22 26° WSW 01:03:22 26° WSW
H-2A R/B (2) 3.2 01:06:43 10° WNW 01:08:24 35° WNW 01:08:24 35° WNW
USA 238 DEB 4.2 01:05:03 10° NNW 01:11:41 57° NE 01:11:41 57° NE
USA 238 4.2 01:05:10 10° NNW 01:11:46 57° NE 01:11:46 57° NE
Milstar 3 Cent rocket 3.8 01:00:58 10° WNW 01:17:15 57° NNE 01:19:04 51° NE
Centaur AC-72 3.3 01:29:54 10° WNW 01:34:37 67° W 01:34:37 67° W
Cosmos 2227 Rocket 4.0 01:30:10 10° NNW 01:32:27 25° NNW 01:32:27 25° NNW
SeaSat 1 3.8 07:30:16 10° NNE 07:33:18 37° NE 07:33:18 37° NE
ATLAS 3B CENTAUR R/B 4.0 07:42:53 15° NNE 07:42:53 15° NNE 07:44:11 10° NE
CZ-2C R/B 4.2 07:47:47 10° NNE 07:47:47 10° NNE 07:47:48 10° NNE
Lacrosse 4 Rocket 4.0 07:55:25 13° NNW 07:55:25 13° NNW 07:56:03 10° N
ARIANE 5 R/B 2.9 07:58:08 10° N 08:02:02 53° NNW 08:02:02 53° NNW
Hubble Space Telescope 3.5 08:04:35 11° SE 08:04:35 11° SE 08:04:59 10° SE
Cosmos 864 Rocket 4.4 07:58:04 10° N 08:04:12 85° E 08:06:23 43° S
GPS 2-15 Rocket1 3.9 08:12:04 40° NNW 08:12:56 45° NNE 08:17:29 10° E
Cosmos 1602 Rocket 3.6 08:13:51 78° NNE 08:13:51 78° NNE 08:18:02 10° N
Cosmos 1110 Rocket 4.2 08:12:46 45° SSE 08:14:10 64° ESE 08:19:16 10° NNE
Cosmos 1607 3.9 08:14:44 50° SSW 08:16:32 89° ESE 08:22:49 10° NNE
Cosmos 1484 Rocket 3.0 08:13:59 10° NNE 08:17:47 69° E 08:17:47 69° E
ALOS 3.8 08:14:51 10° NNW 08:17:03 23° NW 08:17:03 23° NW
Cosmos 2263 4.2 08:15:01 10° NNW 08:20:44 82° ENE 08:26:29 10° SSE
Cosmos 1331 Rocket 4.0 08:24:19 38° S 08:26:18 79° ESE 08:31:31 10° NNE
CZ-4B R/B 4.3 08:21:50 10° NNE 08:26:56 52° ESE 08:31:24 13° S
TSX-5 4.4 08:27:39 35° ESE 08:27:53 36° ESE 08:30:47 10° NE
Cosmos 2366 rocket 4.3 08:30:19 10° NNW 08:36:07 43° W 08:38:10 33° SW
CZ-2C R/B 4.0 08:33:25 10° NNW 08:35:51 19° NW 08:35:51 19° NW
Spot 4 Rocket 4.0 08:34:58 10° N 08:40:01 61° WNW 08:42:15 32° SW
H-2A R/B 3.9 08:37:25 10° NNE 08:40:49 38° E 08:44:02 11° SSE
Meteor 2-20 Rocket 4.4 08:37:59 25° SSW 08:41:33 62° W 08:47:37 10° N
Landsat 4 3.6 08:38:55 10° NNE 08:42:34 78° ESE 08:44:13 31° S
YAOGAN 6 2.7 08:38:57 10° NNE 08:42:34 76° E 08:44:19 29° S
Cosmos 2369 Rocket 2.6 08:37:40 10° NW 08:42:43 36° WSW 08:43:55 32° SW
Cosmos 1656 Rocket 3.8 08:39:14 10° NNW 08:44:22 46° WSW 08:49:36 10° S
SL-08 R/B 3.9 08:41:34 10° SSE 08:46:04 57° ENE 08:50:34 10° N
DELTA 2 DEB (DPAF) 4.0 08:44:09 10° S 08:48:32 66° WSW 08:52:55 10° NNW
FALCON 9 R/B 1.9 08:42:49 10° WNW 08:52:16 79° SW 08:55:37 10° SE
CZ-4C R/B 3.9 08:51:17 10° SSE 08:54:39 51° ENE 08:58:08 10° N
Cosmos 1825 Rocket 3.6 08:58:55 15° SSW 09:02:31 58° W 09:06:51 10° N
Meteor 1-27 4.2 08:59:25 10° NNW 09:04:58 60° W 09:10:28 10° S
Atlas Centaur 2 3.3 09:00:06 18° SW 09:05:54 63° SSE 09:14:17 10° ENE
Cosmos 407 Rocket 4.3 09:02:20 10° NW 09:06:42 27° W 09:11:01 10° SSW
Cosmos 1869 3.5 09:03:28 10° NNW 09:07:08 44° W 09:10:46 10° SSW
SJ-12 4.1 09:03:35 10° NNE 09:07:37 70° ESE 09:11:39 10° S
Cosmos 2239 Rocket 4.5 09:01:26 10° N 09:07:43 78° W 09:14:02 10° S
CZ-3C R/B 3.4 09:05:03 14° WNW 09:08:16 50° N 09:27:19 10° ENE
Cosmos 1633 4.2 09:10:04 17° W 09:10:04 17° W 09:12:10 10° NW
CZ-2C R/B 3.5 09:04:49 10° NNE 09:10:25 70° ESE 09:15:45 10° S
Genesis I 3.0 09:06:44 10° NNW 09:10:38 84° WSW 09:14:25 10° SSE
Cosmos 2058 3.0 09:07:39 11° SSW 09:11:22 51° W 09:15:20 10° N
DELTA 4 R/B 3.9 09:13:14 10° NNW 09:14:21 12° N 09:15:52 10° NNE
CZ-2C R/B 3.8 09:14:21 10° NNW 09:17:23 25° WNW 09:19:29 15° WSW
Cosmos 1606 4.2 09:14:01 10° NNE 09:17:32 39° E 09:21:04 10° SSE
Cosmos 192 4.3 09:13:04 10° SSW 09:17:57 67° WNW 09:22:50 10° N
COSMOS 2406 3.3 09:14:35 10° SSW 09:20:19 86° ESE 09:26:04 10° NNE
Delta 168 3.8 09:18:39 12° SSW 09:21:03 24° SSE 09:23:39 10° E
Ariane H10 4.4 09:17:40 14° SW 09:21:13 43° SSE 09:39:41 10° E
Envisat 3.8 09:22:43 10° NNW 09:27:12 32° WNW 09:31:41 10° SW
Cosmos 1954 Rocket 4.3 09:26:04 10° NNW 09:31:03 43° W 09:36:02 10° S
CZ-3 R/B 4.3 09:07:13 10° WNW 09:32:41 38° N 09:40:16 10° ENE
ARIANE 5 R/B 3.5 09:21:07 10° WSW 09:32:55 38° SSW 09:36:04 10° ESE
Haruka 3.4 09:29:20 10° WNW 09:35:11 36° SW 09:38:22 10° SSE
Cosmos 1833 Rocket 3.5 09:32:54 10° SW 09:37:47 31° WNW 09:42:39 10° N
CZ-4B R/B 3.8 09:34:33 10° N 09:38:21 88° WNW 09:42:22 10° SSW
ATLAS 3B CENTAUR R/B 4.2 09:40:29 10° NNW 09:43:33 16° N 09:47:38 10° NE
Hubble Space Telescope 0.9 09:40:25 10° SW 09:44:30 70° SSE 09:48:36 10° ENE
Meteor 2-3 Rocket 4.1 09:39:17 10° S 09:45:03 74° E 09:50:49 10° N
ARIANE 44L R/B 4.5 10:23:03 10° W 10:47:38 54° SSW 10:51:44 10° ESE
